CYGFM02

Last updated on Fri Sep 11 2026 00:02:39 GMT+0000 (Coordinated Universal Time)

1 41886U 16078C 26253.55715466 .00042588 00000+0 32399-3 0 9991 2 41886 34.9405 8.1839 0004689 317.0446 42.9916 15.71146937542573
UTC large
Height (km)
Speed (km/s)
/
Latitude / Longitude
Inclination (degrees)
Orbital Period (minutes)
Azimuth
Elevation
Range (km)
Doppler Factor

Next 0 passes for location: London (51.5072 / 0.1276)

No passes found over London.
CYGFM02